Terminal Aerodrome Forecast
Issued by NWS Mt. Holly, NJ

Home | Current Version | Previous Version | Text Only | Print | Product List | Glossary On
Versions: 1 2 3 4 5 6 7 8 9 10 11 12 13 14 15 16 17 18 19
000
FTUS41 KPHI 301136
TAFTTN
TAF
KTTN 301136Z 3012/0112 VRB03KT P6SM BKN080
     FM301300 17005KT P6SM BKN060
     FM301700 19010G18KT P6SM SHRA SCT035 BKN050
      TEMPO 3021/3024 5SM TSRA BKN050CB
     FM010000 17006KT P6SM SHRA SCT035 BKN050
      TEMPO 0100/0103 5SM TSRA BR BKN035CB
     FM010400 16004KT 4SM -SHRA BR BKN035 OVC050
     FM010900 21004KT 4SM -SHRA BR BKN035 OVC050=

USA.gov is the U.S. government's official web portal to all federal, state and local government web resources and services.